Time,TemperatureF,DewpointF,PressureIn,WindDirection,WindDirectionDegrees,WindSpeedMPH,WindSpeedGustMPH,Humidity,HourlyPrecipIn,Conditions,Clouds,dailyrainin,SoftwareType,DateUTC
2013-12-01 00:01:00,39.3,39.3,30.42,SSE,158,6.9,6.9,100,0.00,,,0.00,WeatherDisplay:10.37,2013-12-01 05:01:00,
2013-12-01 00:06:00,39.4,39.4,30.41,SE,145,6.9,6.9,100,0.00,,,0.00,WeatherDisplay:10.37,2013-12-01 05:06:00,
2013-12-01 00:11:00,39.7,39.7,30.41,SSE,168,8.1,8.1,100,0.00,,,0.00,WeatherDisplay:10.37,2013-12-01 05:11:00,
2013-12-01 00:16:00,39.9,39.9,30.40,South,171,9.2,9.2,100,0.00,,,0.00,WeatherDisplay:10.37,2013-12-01 05:16:00,
2013-12-01 00:21:00,40.1,40.1,30.40,ESE,114,8.1,8.1,100,0.00,,,0.00,WeatherDisplay:10.37,2013-12-01 05:21:00,
2013-12-01 00:26:00,40.2,40.2,30.40,ENE,58,4.6,4.6,100,0.00,,,0.00,WeatherDisplay:10.37,2013-12-01 05:26:00,
2013-12-01 00:31:00,40.2,40.2,30.40,SSE,165,7.5,7.5,100,0.00,,,0.00,WeatherDisplay:10.37,2013-12-01 05:31:00,
2013-12-01 00:36:00,40.3,40.3,30.40,SSE,157,11.5,11.5,100,0.00,,,0.00,WeatherDisplay:10.37,2013-12-01 05:36:00,
2013-12-01 00:41:00,40.2,40.2,30.40,SSE,151,9.2,9.2,100,0.00,CLR,,0.00,WeatherDisplay:10.37,2013-12-01 05:41:00,
2013-12-01 00:46:00,40.2,40.2,30.39,SE,145,10.4,10.4,100,0.00,CLR,,0.00,WeatherDisplay:10.37,2013-12-01 05:46:00,
2013-12-01 00:51:00,40.4,40.4,30.39,SE,130,10.4,10.4,100,0.00,CLR,,0.00,WeatherDisplay:10.37,2013-12-01 05:51:00,
2013-12-01 00:56:00,40.5,40.5,30.38,SE,141,6.5,6.5,100,0.00,,,0.00,WeatherDisplay:10.37,2013-12-01 05:56:00,
2013-12-01 01:01:00,40.5,40.5,30.38,SSE,147,6.9,6.9,100,0.00,,,0.00,WeatherDisplay:10.37,2013-12-01 06:01:00,
2013-12-01 01:06:00,40.5,40.5,30.38,SSE,152,10.4,10.4,100,0.00,,,0.00,WeatherDisplay:10.37,2013-12-01 06:06:00,
2013-12-01 01:11:00,40.6,40.6,30.38,SE,126,9.2,9.2,100,0.00,,,0.00,WeatherDisplay:10.37,2013-12-01 06:11:00,
2013-12-01 01:16:00,40.8,40.8,30.38,SSE,167,7.2,7.2,100,0.00,,,0.00,WeatherDisplay:10.37,2013-12-01 06:16:00,
2013-12-01 01:21:00,40.7,40.7,30.38,SE,127,9.2,9.2,100,0.00,,,0.00,WeatherDisplay:10.37,2013-12-01 06:21:00,
2013-12-01 01:26:00,40.9,40.9,30.37,SSE,167,5.8,5.8,100,0.00,,,0.00,WeatherDisplay:10.37,2013-12-01 06:26:00,
2013-12-01 01:31:00,40.9,40.9,30.37,SSE,157,9.2,9.2,100,0.00,,,0.00,WeatherDisplay:10.37,2013-12-01 06:31:00,
2013-12-01 01:36:00,41.0,41.0,30.37,ESE,104,9.2,9.2,100,0.00,,,0.00,WeatherDisplay:10.37,2013-12-01 06:36:00,
2013-12-01 01:41:00,41.0,41.0,30.37,SE,133,5.8,5.8,100,0.00,,,0.00,WeatherDisplay:10.37,2013-12-01 06:41:00,
2013-12-01 01:46:00,41.1,41.1,30.37,SSE,160,9.2,9.2,100,0.00,,,0.00,WeatherDisplay:10.37,2013-12-01 06:46:00,
2013-12-01 01:51:00,41.3,41.3,30.36,SE,133,9.2,9.2,100,0.00,,,0.00,WeatherDisplay:10.37,2013-12-01 06:51:00,
2013-12-01 01:56:00,41.4,41.4,30.36,SSE,160,10.4,10.4,100,0.00,,,0.00,WeatherDisplay:10.37,2013-12-01 06:56:00,
2013-12-01 02:01:00,41.4,41.4,30.36,ESE,103,8.1,8.1,100,0.00,,,0.00,WeatherDisplay:10.37,2013-12-01 07:01:00,
2013-12-01 02:06:00,41.6,41.6,30.36,SE,145,9.2,9.2,100,0.00,,,0.00,WeatherDisplay:10.37,2013-12-01 07:06:00,
2013-12-01 02:11:00,41.6,41.6,30.36,SE,130,13.8,13.8,100,0.00,,,0.00,WeatherDisplay:10.37,2013-12-01 07:11:00,
2013-12-01 02:16:00,41.7,41.7,30.36,South,169,5.3,5.3,100,0.00,,,0.00,WeatherDisplay:10.37,2013-12-01 07:16:00,
2013-12-01 02:21:00,41.6,41.6,30.35,SSE,152,9.2,9.2,100,0.00,,,0.00,WeatherDisplay:10.37,2013-12-01 07:21:00,
2013-12-01 02:26:00,41.7,41.7,30.35,SE,127,5.0,5.0,100,0.00,,,0.00,WeatherDisplay:10.37,2013-12-01 07:26:00,
2013-12-01 02:31:00,41.6,41.6,30.35,SE,145,4.6,4.6,100,0.00,,,0.00,WeatherDisplay:10.37,2013-12-01 07:31:00,
2013-12-01 02:36:00,41.7,41.7,30.34,SE,141,4.6,4.6,100,0.00,,,0.00,WeatherDisplay:10.37,2013-12-01 07:36:00,
2013-12-01 02:41:00,41.6,41.6,30.34,East,100,4.6,4.6,100,0.00,,,0.00,WeatherDisplay:10.37,2013-12-01 07:41:00,
2013-12-01 02:46:00,41.7,41.7,30.34,SSE,150,6.9,6.9,100,0.00,,,0.00,WeatherDisplay:10.37,2013-12-01 07:46:00,
2013-12-01 02:51:00,41.8,41.8,30.34,SE,128,9.2,9.2,100,0.00,,,0.00,WeatherDisplay:10.37,2013-12-01 07:51:00,
2013-12-01 02:56:00,41.8,41.8,30.33,SE,134,8.1,8.1,100,0.00,,,0.00,WeatherDisplay:10.37,2013-12-01 07:56:00,
2013-12-01 03:01:00,41.8,41.8,30.33,SE,144,6.9,6.9,100,0.00,,,0.00,WeatherDisplay:10.37,2013-12-01 08:01:00,
2013-12-01 03:06:00,41.8,41.8,30.33,ESE,112,7.0,7.0,100,0.00,,,0.00,WeatherDisplay:10.37,2013-12-01 08:06:00,
2013-12-01 03:11:00,41.9,41.9,30.32,SE,145,9.2,9.2,100,0.00,,,0.00,WeatherDisplay:10.37,2013-12-01 08:11:00,
2013-12-01 03:16:00,42.0,42.0,30.32,SE,127,8.1,8.1,100,0.00,,,0.00,WeatherDisplay:10.37,2013-12-01 08:16:00,
2013-12-01 03:21:00,42.0,42.0,30.32,South,176,9.2,9.2,100,0.00,,,0.00,WeatherDisplay:10.37,2013-12-01 08:21:00,
2013-12-01 03:26:00,42.1,42.1,30.32,East,90,6.9,6.9,100,0.00,,,0.00,WeatherDisplay:10.37,2013-12-01 08:26:00,
2013-12-01 03:31:00,42.1,42.1,30.31,ESE,113,10.4,10.4,100,0.00,CLR,,0.00,WeatherDisplay:10.37,2013-12-01 08:31:00,
2013-12-01 03:37:00,42.2,42.2,30.31,ESE,110,6.9,6.9,100,0.00,,,0.00,WeatherDisplay:10.37,2013-12-01 08:37:00,
2013-12-01 03:41:00,42.3,42.3,30.31,ESE,120,9.2,9.2,100,0.00,CLR,,0.00,WeatherDisplay:10.37,2013-12-01 08:41:00,
2013-12-01 03:47:00,42.3,42.3,30.30,SSE,147,9.2,9.2,100,0.00,CLR,,0.00,WeatherDisplay:10.37,2013-12-01 08:47:00,
2013-12-01 03:52:00,42.5,42.5,30.30,SE,133,8.1,8.1,100,0.00,,,0.00,WeatherDisplay:10.37,2013-12-01 08:52:00,
2013-12-01 03:57:00,42.3,42.3,30.31,SE,138,10.4,10.4,100,0.00,,,0.00,WeatherDisplay:10.37,2013-12-01 08:57:00,
2013-12-01 04:01:00,42.3,42.3,30.31,SE,140,8.1,8.1,100,0.00,,,0.00,WeatherDisplay:10.37,2013-12-01 09:01:00,
2013-12-01 04:06:00,42.4,42.4,30.31,SSE,148,7.5,7.5,100,0.00,,,0.00,WeatherDisplay:10.37,2013-12-01 09:06:00,
2013-12-01 04:11:00,42.5,42.5,30.31,SE,145,5.8,5.8,100,0.00,,,0.00,WeatherDisplay:10.37,2013-12-01 09:11:00,
2013-12-01 04:16:00,42.5,42.5,30.31,SE,138,8.1,8.1,100,0.00,,,0.00,WeatherDisplay:10.37,2013-12-01 09:16:00,
2013-12-01 04:21:00,42.5,42.5,30.31,ESE,116,9.1,9.1,100,0.00,,,0.00,WeatherDisplay:10.37,2013-12-01 09:21:00,
2013-12-01 04:26:00,42.6,42.6,30.30,SE,140,6.9,6.9,100,0.00,,,0.00,WeatherDisplay:10.37,2013-12-01 09:26:00,
2013-12-01 04:31:00,42.7,42.7,30.30,South,178,8.1,8.1,100,0.00,,,0.00,WeatherDisplay:10.37,2013-12-01 09:31:00,
2013-12-01 04:36:00,42.7,42.7,30.30,ESE,113,6.9,6.9,100,0.00,,,0.00,WeatherDisplay:10.37,2013-12-01 09:36:00,
2013-12-01 04:41:00,42.5,42.5,30.29,ESE,117,9.2,9.2,100,0.00,CLR,,0.00,WeatherDisplay:10.37,2013-12-01 09:41:00,
2013-12-01 04:46:00,42.6,42.6,30.29,SSE,151,9.2,9.2,100,0.00,CLR,,0.00,WeatherDisplay:10.37,2013-12-01 09:46:00,
2013-12-01 04:51:00,42.5,42.5,30.29,SE,131,11.5,11.5,100,0.00,CLR,,0.00,WeatherDisplay:10.37,2013-12-01 09:51:00,
2013-12-01 04:56:00,42.7,42.7,30.28,SE,137,9.2,9.2,100,0.00,CLR,,0.00,WeatherDisplay:10.37,2013-12-01 09:56:00,
2013-12-01 05:01:00,42.8,42.8,30.28,SE,133,9.2,9.2,100,0.00,CLR,,0.00,WeatherDisplay:10.37,2013-12-01 10:01:00,
2013-12-01 05:06:00,42.7,42.7,30.28,SE,133,8.1,8.1,100,0.00,CLR,,0.00,WeatherDisplay:10.37,2013-12-01 10:06:00,
2013-12-01 05:11:00,42.8,42.8,30.28,ESE,117,11.5,11.5,100,0.00,CLR,,0.00,WeatherDisplay:10.37,2013-12-01 10:11:00,
2013-12-01 05:16:00,42.8,42.8,30.28,SE,134,9.2,9.2,100,0.00,,,0.00,WeatherDisplay:10.37,2013-12-01 10:16:00,
2013-12-01 05:21:00,42.8,42.8,30.28,SSE,151,9.2,9.2,100,0.00,CLR,,0.00,WeatherDisplay:10.37,2013-12-01 10:21:00,
2013-12-01 05:26:00,42.9,42.9,30.27,SSE,158,12.7,12.7,100,0.00,,,0.00,WeatherDisplay:10.37,2013-12-01 10:26:00,
2013-12-01 05:31:00,42.9,42.9,30.28,SSE,150,10.4,10.4,100,0.00,,,0.00,WeatherDisplay:10.37,2013-12-01 10:31:00,
2013-12-01 05:36:00,43.1,43.1,30.28,East,82,9.2,9.2,100,0.00,CLR,,0.00,WeatherDisplay:10.37,2013-12-01 10:36:00,
2013-12-01 05:41:00,43.2,43.2,30.27,SE,140,11.5,11.5,100,0.00,CLR,,0.00,WeatherDisplay:10.37,2013-12-01 10:41:00,
2013-12-01 05:46:00,43.2,43.2,30.27,ESE,103,6.9,6.9,100,0.00,CLR,,0.00,WeatherDisplay:10.37,2013-12-01 10:46:00,
2013-12-01 05:51:00,43.0,43.0,30.27,ESE,102,10.4,10.4,100,0.00,,,0.00,WeatherDisplay:10.37,2013-12-01 10:51:00,
2013-12-01 05:56:00,43.2,43.2,30.27,ESE,109,10.4,10.4,100,0.00,CLR,,0.00,WeatherDisplay:10.37,2013-12-01 10:56:00,
2013-12-01 06:01:00,43.2,43.2,30.26,SE,126,10.4,10.4,100,0.00,CLR,,0.00,WeatherDisplay:10.37,2013-12-01 11:01:00,
2013-12-01 06:06:00,43.2,43.2,30.26,SE,130,10.4,10.4,100,0.00,CLR,,0.00,WeatherDisplay:10.37,2013-12-01 11:06:00,
2013-12-01 06:11:00,43.2,43.2,30.26,ENE,78,6.9,6.9,100,0.00,,,0.00,WeatherDisplay:10.37,2013-12-01 11:11:00,
2013-12-01 06:16:00,43.2,43.2,30.26,ESE,102,11.5,11.5,100,0.00,,,0.00,WeatherDisplay:10.37,2013-12-01 11:16:00,
2013-12-01 06:21:00,43.3,43.3,30.26,East,82,9.2,9.2,100,0.00,,,0.00,WeatherDisplay:10.37,2013-12-01 11:21:00,
2013-12-01 06:26:00,43.4,43.4,30.26,ESE,119,8.1,8.1,100,0.00,CLR,,0.00,WeatherDisplay:10.37,2013-12-01 11:26:00,
2013-12-01 06:31:00,43.4,43.4,30.26,SE,133,5.8,5.8,100,0.00,,,0.00,WeatherDisplay:10.37,2013-12-01 11:31:00,
2013-12-01 06:36:00,43.4,43.4,30.25,East,80,6.9,6.9,100,0.00,,,0.00,WeatherDisplay:10.37,2013-12-01 11:36:00,
2013-12-01 06:41:00,43.6,43.6,30.26,South,175,8.1,8.1,100,0.00,CLR,,0.00,WeatherDisplay:10.37,2013-12-01 11:41:00,
2013-12-01 06:46:00,43.6,43.6,30.25,ESE,114,6.9,6.9,100,0.00,CLR,,0.00,WeatherDisplay:10.37,2013-12-01 11:46:00,
2013-12-01 06:51:00,43.8,43.8,30.26,SE,141,8.8,8.8,100,0.00,CLR,,0.00,WeatherDisplay:10.37,2013-12-01 11:51:00,
2013-12-01 06:56:00,43.9,43.9,30.26,SE,137,8.1,8.1,100,0.00,,,0.00,WeatherDisplay:10.37,2013-12-01 11:56:00,
2013-12-01 07:01:00,43.9,43.9,30.25,ESE,121,8.1,8.1,100,0.00,,,0.00,WeatherDisplay:10.37,2013-12-01 12:01:00,
2013-12-01 07:06:00,44.0,44.0,30.25,ESE,113,6.9,6.9,100,0.00,,,0.00,WeatherDisplay:10.37,2013-12-01 12:06:00,
2013-12-01 07:11:00,44.1,44.1,30.25,SE,134,9.2,9.2,100,0.00,,,0.00,WeatherDisplay:10.37,2013-12-01 12:11:00,
2013-12-01 07:16:00,44.1,44.1,30.25,SSE,157,13.8,13.8,100,0.00,,,0.00,WeatherDisplay:10.37,2013-12-01 12:16:00,
2013-12-01 07:21:00,44.2,44.2,30.25,ESE,103,8.1,8.1,100,0.00,CLR,,0.00,WeatherDisplay:10.37,2013-12-01 12:21:00,
2013-12-01 07:26:00,44.2,44.2,30.25,East,86,9.2,9.2,100,0.00,CLR,,0.00,WeatherDisplay:10.37,2013-12-01 12:26:00,
2013-12-01 07:31:00,44.3,44.3,30.25,ESE,116,9.2,9.2,100,0.00,CLR,,0.00,WeatherDisplay:10.37,2013-12-01 12:31:00,
2013-12-01 07:36:00,44.3,44.3,30.25,SE,133,9.2,9.2,100,0.00,CLR,,0.00,WeatherDisplay:10.37,2013-12-01 12:36:00,
2013-12-01 07:41:00,44.4,44.4,30.25,SE,124,9.9,9.9,100,0.00,,,0.00,WeatherDisplay:10.37,2013-12-01 12:41:00,
2013-12-01 07:46:00,44.3,44.3,30.25,South,176,10.4,10.4,100,0.00,,,0.00,WeatherDisplay:10.37,2013-12-01 12:46:00,
2013-12-01 07:51:00,44.5,44.5,30.25,ESE,117,13.0,13.0,100,0.00,CLR,,0.00,WeatherDisplay:10.37,2013-12-01 12:51:00,
2013-12-01 07:56:00,44.4,44.4,30.24,SE,136,10.9,10.9,100,0.00,CLR,,0.00,WeatherDisplay:10.37,2013-12-01 12:56:00,
2013-12-01 08:01:00,44.4,44.4,30.24,SSE,158,11.5,11.5,100,0.00,CLR,,0.00,WeatherDisplay:10.37,2013-12-01 13:01:00,
2013-12-01 08:06:00,44.5,44.5,30.25,SSE,147,8.1,8.1,100,0.00,CLR,,0.00,WeatherDisplay:10.37,2013-12-01 13:06:00,
2013-12-01 08:11:00,44.4,44.4,30.24,ESE,109,12.7,12.7,100,0.00,CLR,,0.00,WeatherDisplay:10.37,2013-12-01 13:11:00,
2013-12-01 08:16:00,44.5,44.5,30.24,East,100,10.4,10.4,100,0.00,CLR,,0.00,WeatherDisplay:10.37,2013-12-01 13:16:00,
2013-12-01 08:21:00,44.5,44.5,30.24,SSE,161,9.2,9.2,100,0.00,CLR,,0.00,WeatherDisplay:10.37,2013-12-01 13:21:00,
2013-12-01 08:26:00,44.6,44.6,30.24,SE,145,10.6,10.6,100,0.00,CLR,,0.00,WeatherDisplay:10.37,2013-12-01 13:26:00,
2013-12-01 08:31:00,44.5,44.5,30.24,ESE,121,12.7,12.7,100,0.00,CLR,,0.00,WeatherDisplay:10.37,2013-12-01 13:31:00,
2013-12-01 08:36:00,44.5,44.5,30.24,SSE,150,12.7,12.7,100,0.00,CLR,,0.00,WeatherDisplay:10.37,2013-12-01 13:36:00,
2013-12-01 08:41:00,44.5,44.5,30.24,SE,144,8.1,8.1,100,0.00,CLR,,0.00,WeatherDisplay:10.37,2013-12-01 13:41:00,
2013-12-01 08:46:00,44.4,44.4,30.23,SE,124,12.7,12.7,100,0.00,CLR,,0.00,WeatherDisplay:10.37,2013-12-01 13:46:00,
2013-12-01 08:51:00,44.6,44.6,30.23,ESE,107,12.7,12.7,100,0.00,CLR,,0.00,WeatherDisplay:10.37,2013-12-01 13:51:00,
2013-12-01 08:56:00,44.5,44.5,30.23,East,95,10.4,10.4,100,0.00,CLR,,0.00,WeatherDisplay:10.37,2013-12-01 13:56:00,
2013-12-01 09:01:00,44.7,44.7,30.22,SSE,160,8.1,8.1,100,0.00,CLR,,0.00,WeatherDisplay:10.37,2013-12-01 14:01:00,
2013-12-01 09:06:00,44.6,44.6,30.22,ESE,117,12.7,12.7,100,0.00,CLR,,0.00,WeatherDisplay:10.37,2013-12-01 14:06:00,
2013-12-01 09:11:00,44.8,44.8,30.22,ESE,116,8.1,8.1,100,0.00,CLR,,0.00,WeatherDisplay:10.37,2013-12-01 14:11:00,
2013-12-01 09:16:00,44.8,44.8,30.22,ESE,107,12.7,12.7,100,0.00,CLR,,0.00,WeatherDisplay:10.37,2013-12-01 14:16:00,
2013-12-01 09:21:00,45.0,45.0,30.22,SE,138,9.2,9.2,100,0.00,CLR,,0.00,WeatherDisplay:10.37,2013-12-01 14:21:00,
2013-12-01 09:26:00,44.9,44.9,30.22,ESE,112,8.1,8.1,100,0.00,CLR,,0.00,WeatherDisplay:10.37,2013-12-01 14:26:00,
2013-12-01 09:31:00,45.1,45.1,30.22,ESE,103,15.0,15.0,100,0.00,CLR,,0.00,WeatherDisplay:10.37,2013-12-01 14:31:00,
2013-12-01 09:36:00,45.3,45.3,30.22,ESE,102,9.3,9.3,100,0.00,CLR,,0.00,WeatherDisplay:10.37,2013-12-01 14:36:00,
2013-12-01 09:41:00,45.3,45.3,30.22,ESE,123,11.5,11.5,100,0.00,CLR,,0.00,WeatherDisplay:10.37,2013-12-01 14:41:00,
2013-12-01 09:46:00,45.5,45.5,30.21,SE,134,10.4,10.4,100,0.00,CLR,,0.00,WeatherDisplay:10.37,2013-12-01 14:46:00,
2013-12-01 09:51:00,45.5,45.5,30.21,SSE,158,12.7,12.7,100,0.00,CLR,,0.00,WeatherDisplay:10.37,2013-12-01 14:51:00,
2013-12-01 09:56:00,45.4,45.4,30.21,SSE,165,13.8,13.8,100,0.00,CLR,,0.00,WeatherDisplay:10.37,2013-12-01 14:56:00,
2013-12-01 10:01:00,45.7,45.7,30.21,SE,127,12.7,12.7,100,0.00,CLR,,0.00,WeatherDisplay:10.37,2013-12-01 15:01:00,
2013-12-01 10:06:00,45.8,45.8,30.21,ESE,114,9.8,9.8,100,0.00,CLR,,0.00,WeatherDisplay:10.37,2013-12-01 15:06:00,
2013-12-01 10:11:00,45.8,45.8,30.20,ESE,120,13.8,13.8,100,0.00,CLR,,0.00,WeatherDisplay:10.37,2013-12-01 15:11:00,
2013-12-01 10:16:00,45.9,45.9,30.20,East,90,11.5,11.5,100,0.00,CLR,,0.00,WeatherDisplay:10.37,2013-12-01 15:16:00,
2013-12-01 10:21:00,46.0,46.0,30.20,SSE,162,9.2,9.2,100,0.00,CLR,,0.00,WeatherDisplay:10.37,2013-12-01 15:21:00,
2013-12-01 10:26:00,46.1,46.1,30.20,ENE,75,6.9,6.9,100,0.00,CLR,,0.00,WeatherDisplay:10.37,2013-12-01 15:26:00,
2013-12-01 10:32:00,46.0,46.0,30.19,East,96,10.4,10.4,100,0.00,CLR,,0.00,WeatherDisplay:10.37,2013-12-01 15:32:00,
2013-12-01 10:37:00,46.4,46.4,30.19,East,92,9.2,9.2,100,0.00,CLR,,0.00,WeatherDisplay:10.37,2013-12-01 15:37:00,
2013-12-01 10:42:00,46.6,46.6,30.19,SE,124,8.2,8.2,100,0.00,CLR,,0.00,WeatherDisplay:10.37,2013-12-01 15:42:00,
2013-12-01 10:47:00,46.8,46.8,30.19,East,100,8.1,8.1,100,0.00,CLR,,0.00,WeatherDisplay:10.37,2013-12-01 15:47:00,
2013-12-01 10:52:00,46.8,46.8,30.19,ESE,107,10.4,10.4,100,0.00,CLR,,0.00,WeatherDisplay:10.37,2013-12-01 15:52:00,
2013-12-01 10:57:00,46.8,46.8,30.18,SE,127,11.5,11.5,100,0.00,CLR,,0.00,WeatherDisplay:10.37,2013-12-01 15:57:00,
2013-12-01 11:02:00,46.9,46.9,30.18,SE,128,10.4,10.4,100,0.00,CLR,,0.00,WeatherDisplay:10.37,2013-12-01 16:02:00,
2013-12-01 11:07:00,46.8,46.8,30.17,SSE,151,12.7,12.7,100,0.00,CLR,,0.00,WeatherDisplay:10.37,2013-12-01 16:07:00,
2013-12-01 11:12:00,46.7,46.7,30.17,SSE,160,9.2,9.2,100,0.00,CLR,,0.00,WeatherDisplay:10.37,2013-12-01 16:12:00,
2013-12-01 11:17:00,46.8,46.8,30.17,South,171,5.8,5.8,100,0.00,CLR,,0.00,WeatherDisplay:10.37,2013-12-01 16:17:00,
2013-12-01 11:22:00,46.6,46.6,30.17,SSE,158,9.2,9.2,100,0.00,CLR,,0.00,WeatherDisplay:10.37,2013-12-01 16:22:00,
2013-12-01 11:27:00,46.8,46.8,30.17,South,178,6.9,6.9,100,0.00,CLR,,0.00,WeatherDisplay:10.37,2013-12-01 16:27:00,
2013-12-01 11:32:00,46.8,46.8,30.16,East,79,11.5,11.5,100,0.00,CLR,,0.00,WeatherDisplay:10.37,2013-12-01 16:32:00,
2013-12-01 11:37:00,46.8,46.8,30.16,East,100,9.2,9.2,100,0.00,CLR,,0.00,WeatherDisplay:10.37,2013-12-01 16:37:00,
2013-12-01 11:42:00,46.7,46.7,30.16,SE,131,10.4,10.4,100,0.00,CLR,,0.00,WeatherDisplay:10.37,2013-12-01 16:42:00,
2013-12-01 11:47:00,46.7,46.7,30.15,ENE,76,9.2,9.2,100,0.00,CLR,,0.00,WeatherDisplay:10.37,2013-12-01 16:47:00,
2013-12-01 11:52:00,46.8,46.8,30.15,SSE,168,9.2,9.2,100,0.00,CLR,,0.00,WeatherDisplay:10.37,2013-12-01 16:52:00,
2013-12-01 11:57:00,46.8,46.8,30.15,SSE,164,11.5,11.5,100,0.00,CLR,,0.00,WeatherDisplay:10.37,2013-12-01 16:57:00,
2013-12-01 12:02:00,46.7,46.7,30.15,SE,137,11.5,11.5,100,0.00,CLR,,0.00,WeatherDisplay:10.37,2013-12-01 17:02:00,
2013-12-01 12:07:00,46.6,46.6,30.15,SE,137,10.4,10.4,100,0.00,CLR,,0.00,WeatherDisplay:10.37,2013-12-01 17:07:00,
2013-12-01 12:12:00,46.7,46.7,30.14,ESE,104,8.1,8.1,100,0.00,CLR,,0.00,WeatherDisplay:10.37,2013-12-01 17:12:00,
2013-12-01 12:17:00,46.6,46.6,30.14,ESE,116,6.9,6.9,100,0.00,CLR,,0.00,WeatherDisplay:10.37,2013-12-01 17:17:00,
2013-12-01 12:22:00,46.4,46.4,30.14,SE,131,11.5,11.5,100,0.00,CLR,,0.00,WeatherDisplay:10.37,2013-12-01 17:22:00,
2013-12-01 12:27:00,46.4,46.4,30.13,ESE,114,6.9,6.9,100,0.00,CLR,,0.00,WeatherDisplay:10.37,2013-12-01 17:27:00,
2013-12-01 12:32:00,46.4,46.4,30.13,SSE,151,9.2,9.2,100,0.00,CLR,,0.00,WeatherDisplay:10.37,2013-12-01 17:32:00,
2013-12-01 12:37:00,46.3,46.3,30.13,SSE,150,10.4,10.4,100,0.00,CLR,,0.00,WeatherDisplay:10.37,2013-12-01 17:37:00,
2013-12-01 12:42:00,46.2,46.2,30.12,SSE,155,10.4,10.4,100,0.00,CLR,,0.00,WeatherDisplay:10.37,2013-12-01 17:42:00,
2013-12-01 12:47:00,46.1,46.1,30.12,ENE,75,6.9,6.9,100,0.00,CLR,,0.00,WeatherDisplay:10.37,2013-12-01 17:47:00,
2013-12-01 12:52:00,45.8,45.8,30.12,ESE,107,8.1,8.1,100,0.00,,,0.00,WeatherDisplay:10.37,2013-12-01 17:52:00,
2013-12-01 12:57:00,45.7,45.7,30.12,SE,138,6.9,6.9,100,0.00,,,0.00,WeatherDisplay:10.37,2013-12-01 17:57:00,
2013-12-01 13:02:00,45.6,45.6,30.11,ESE,104,7.4,7.4,100,0.00,,,0.00,WeatherDisplay:10.37,2013-12-01 18:02:00,
2013-12-01 13:07:00,45.2,45.2,30.11,East,83,6.9,6.9,100,0.00,,,0.00,WeatherDisplay:10.37,2013-12-01 18:07:00,
2013-12-01 13:12:00,45.0,45.0,30.11,East,80,8.1,8.1,100,0.00,,,0.00,WeatherDisplay:10.37,2013-12-01 18:12:00,
2013-12-01 13:17:00,45.1,45.1,30.11,ENE,69,5.9,5.9,100,0.00,,,0.00,WeatherDisplay:10.37,2013-12-01 18:17:00,
2013-12-01 13:22:00,44.9,44.9,30.10,ENE,76,5.8,5.8,100,0.00,,,0.00,WeatherDisplay:10.37,2013-12-01 18:22:00,
2013-12-01 13:27:00,44.5,44.5,30.10,East,83,8.1,8.1,100,0.00,,,0.00,WeatherDisplay:10.37,2013-12-01 18:27:00,
2013-12-01 13:32:00,44.3,44.3,30.10,ENE,65,8.1,8.1,100,0.00,,,0.00,WeatherDisplay:10.37,2013-12-01 18:32:00,
2013-12-01 13:37:00,44.3,44.3,30.09,East,99,5.8,5.8,100,0.00,,,0.00,WeatherDisplay:10.37,2013-12-01 18:37:00,
2013-12-01 13:42:00,44.3,44.3,30.09,East,99,5.8,5.8,100,0.00,,,0.00,WeatherDisplay:10.37,2013-12-01 18:42:00,
2013-12-01 13:47:00,44.3,44.3,30.09,East,100,8.1,8.1,100,0.00,,,0.00,WeatherDisplay:10.37,2013-12-01 18:47:00,
2013-12-01 13:52:00,44.5,44.5,30.09,ENE,59,4.6,4.6,100,0.01,RA,,0.01,WeatherDisplay:10.37,2013-12-01 18:52:00,
2013-12-01 13:57:00,44.4,44.4,30.08,ENE,65,4.8,4.8,100,0.01,RA,,0.01,WeatherDisplay:10.37,2013-12-01 18:57:00,
2013-12-01 14:02:00,44.4,44.4,30.08,NE,35,2.3,0.0,100,0.01,,,0.01,WeatherDisplay:10.37,2013-12-01 19:02:00,
2013-12-01 14:07:00,44.5,44.5,30.08,ENE,76,3.5,3.5,100,0.01,CLR,,0.01,WeatherDisplay:10.37,2013-12-01 19:07:00,
2013-12-01 14:12:00,44.4,44.4,30.08,NE,41,5.8,5.8,100,0.01,,,0.01,WeatherDisplay:10.37,2013-12-01 19:12:00,
2013-12-01 14:17:00,44.3,44.3,30.08,NNE,20,5.8,5.8,100,0.01,,,0.01,WeatherDisplay:10.37,2013-12-01 19:17:00,
2013-12-01 14:22:00,44.4,44.4,30.08,NNE,23,4.6,4.6,100,0.01,,,0.01,WeatherDisplay:10.37,2013-12-01 19:22:00,
2013-12-01 14:27:00,44.4,44.4,30.08,NNW,346,4.6,4.6,100,0.01,,,0.01,WeatherDisplay:10.37,2013-12-01 19:27:00,
2013-12-01 14:32:00,44.4,44.4,30.07,ESE,117,5.8,5.8,100,0.01,CLR,,0.01,WeatherDisplay:10.37,2013-12-01 19:32:00,
2013-12-01 14:37:00,44.4,44.4,30.08,East,93,4.6,4.6,100,0.01,CLR,,0.01,WeatherDisplay:10.37,2013-12-01 19:37:00,
2013-12-01 14:38:00,44.4,44.4,30.08,NNE,17,5.8,5.8,100,0.01,CLR,,0.01,WeatherDisplay:10.37,2013-12-01 19:38:00,
2013-12-01 14:43:00,44.5,44.5,30.07,NE,52,3.5,3.5,100,0.01,CLR,,0.01,WeatherDisplay:10.37,2013-12-01 19:43:00,
2013-12-01 14:48:00,44.5,44.5,30.07,East,85,4.6,4.6,100,0.01,CLR,,0.01,WeatherDisplay:10.37,2013-12-01 19:48:00,
2013-12-01 14:53:00,44.5,44.5,30.07,ENE,62,7.6,7.6,100,0.00,,,0.01,WeatherDisplay:10.37,2013-12-01 19:53:00,
2013-12-01 14:58:00,44.7,44.7,30.07,NE,37,1.2,1.2,100,0.00,,,0.01,WeatherDisplay:10.37,2013-12-01 19:58:00,
2013-12-01 15:03:00,44.8,44.8,30.07,ENE,75,4.0,4.0,100,0.00,,,0.01,WeatherDisplay:10.37,2013-12-01 20:03:00,
2013-12-01 15:08:00,44.9,44.9,30.07,ENE,72,3.5,3.5,100,0.00,,,0.01,WeatherDisplay:10.37,2013-12-01 20:08:00,
2013-12-01 15:13:00,45.2,45.2,30.06,ESE,104,5.0,5.0,100,0.00,,,0.01,WeatherDisplay:10.37,2013-12-01 20:13:00,
2013-12-01 15:18:00,45.3,45.3,30.06,NE,35,2.3,2.3,100,0.00,,,0.01,WeatherDisplay:10.37,2013-12-01 20:18:00,
2013-12-01 15:23:00,45.7,45.7,30.06,NE,34,5.8,5.8,100,0.00,,,0.01,WeatherDisplay:10.37,2013-12-01 20:23:00,
2013-12-01 15:28:00,46.0,46.0,30.05,East,90,6.9,6.9,100,0.00,,,0.01,WeatherDisplay:10.37,2013-12-01 20:28:00,
2013-12-01 15:33:00,46.1,46.1,30.05,ENE,61,4.6,4.6,100,0.00,,,0.01,WeatherDisplay:10.37,2013-12-01 20:33:00,
2013-12-01 15:38:00,46.0,46.0,30.05,East,83,4.6,4.6,100,0.00,,,0.01,WeatherDisplay:10.37,2013-12-01 20:38:00,
2013-12-01 15:43:00,46.3,46.3,30.05,NE,45,9.2,9.2,100,0.00,,,0.01,WeatherDisplay:10.37,2013-12-01 20:43:00,
2013-12-01 15:48:00,46.3,46.3,30.05,East,100,3.5,3.5,100,0.00,,,0.01,WeatherDisplay:10.37,2013-12-01 20:48:00,
2013-12-01 15:53:00,46.1,46.1,30.04,SE,131,6.9,6.9,100,0.00,,,0.01,WeatherDisplay:10.37,2013-12-01 20:53:00,
2013-12-01 15:58:00,46.3,46.3,30.04,ESE,121,9.2,9.2,100,0.00,,,0.01,WeatherDisplay:10.37,2013-12-01 20:58:00,
2013-12-01 16:03:00,46.0,46.0,30.04,SSE,150,8.1,8.1,100,0.00,,,0.01,WeatherDisplay:10.37,2013-12-01 21:03:00,
2013-12-01 16:08:00,47.0,47.0,30.04,ESE,106,9.2,9.2,100,0.00,CLR,,0.01,WeatherDisplay:10.37,2013-12-01 21:08:00,
2013-12-01 16:13:00,47.0,47.0,30.04,East,96,16.1,16.1,100,0.00,CLR,,0.01,WeatherDisplay:10.37,2013-12-01 21:13:00,
2013-12-01 16:18:00,47.1,47.1,30.03,ESE,112,11.6,11.6,100,0.00,CLR,,0.01,WeatherDisplay:10.37,2013-12-01 21:18:00,
2013-12-01 16:23:00,47.0,47.0,30.03,East,82,12.7,12.7,100,0.00,CLR,,0.01,WeatherDisplay:10.37,2013-12-01 21:23:00,
2013-12-01 16:28:00,47.0,47.0,30.03,ESE,107,12.8,12.8,100,0.00,CLR,,0.01,WeatherDisplay:10.37,2013-12-01 21:28:00,
2013-12-01 16:33:00,47.0,47.0,30.03,ESE,123,10.4,10.4,100,0.00,CLR,,0.01,WeatherDisplay:10.37,2013-12-01 21:33:00,
2013-12-01 16:38:00,47.1,47.1,30.03,SE,128,13.8,13.8,100,0.00,CLR,,0.01,WeatherDisplay:10.37,2013-12-01 21:38:00,
2013-12-01 16:43:00,47.0,47.0,30.03,SE,133,16.1,16.1,100,0.00,CLR,,0.01,WeatherDisplay:10.37,2013-12-01 21:43:00,
2013-12-01 16:48:00,47.0,47.0,30.03,ESE,106,11.5,11.5,100,0.00,CLR,,0.01,WeatherDisplay:10.37,2013-12-01 21:48:00,
2013-12-01 16:53:00,46.9,46.9,30.03,SE,133,10.4,10.4,100,0.00,CLR,,0.01,WeatherDisplay:10.37,2013-12-01 21:53:00,
2013-12-01 16:58:00,46.9,46.9,30.03,SE,137,8.1,8.1,100,0.00,CLR,,0.01,WeatherDisplay:10.37,2013-12-01 21:58:00,
2013-12-01 17:03:00,46.9,46.9,30.03,SSE,165,5.8,5.8,100,0.00,CLR,,0.01,WeatherDisplay:10.37,2013-12-01 22:03:00,
2013-12-01 17:08:00,46.8,46.8,30.03,ESE,107,4.6,4.6,100,0.00,CLR,,0.01,WeatherDisplay:10.37,2013-12-01 22:08:00,
2013-12-01 17:13:00,46.6,46.6,30.03,ESE,114,5.8,5.8,100,0.00,CLR,,0.01,WeatherDisplay:10.37,2013-12-01 22:13:00,
2013-12-01 17:19:00,47.4,47.4,30.03,East,99,5.8,5.8,100,0.00,CLR,,0.01,WeatherDisplay:10.37,2013-12-01 22:19:00,
2013-12-01 17:24:00,47.5,47.5,30.03,SE,144,10.4,10.4,100,0.00,CLR,,0.01,WeatherDisplay:10.37,2013-12-01 22:24:00,
2013-12-01 17:29:00,47.5,47.5,30.03,ESE,121,8.1,8.1,100,0.00,CLR,,0.01,WeatherDisplay:10.37,2013-12-01 22:29:00,
2013-12-01 17:34:00,47.5,47.5,30.03,SSE,155,9.2,9.2,100,0.00,CLR,,0.01,WeatherDisplay:10.37,2013-12-01 22:34:00,
2013-12-01 17:39:00,47.5,47.5,30.03,SSW,198,3.5,3.5,100,0.00,CLR,,0.01,WeatherDisplay:10.37,2013-12-01 22:39:00,
2013-12-01 17:44:00,47.5,47.5,30.03,SE,141,5.8,5.8,100,0.00,CLR,,0.01,WeatherDisplay:10.37,2013-12-01 22:44:00,
2013-12-01 17:49:00,47.4,47.4,30.02,SSE,157,6.9,6.9,100,0.00,CLR,,0.01,WeatherDisplay:10.37,2013-12-01 22:49:00,
2013-12-01 17:54:00,47.4,47.4,30.02,SE,131,5.8,5.8,100,0.00,CLR,,0.01,WeatherDisplay:10.37,2013-12-01 22:54:00,
2013-12-01 17:59:00,47.5,47.5,30.02,SE,141,6.9,6.9,100,0.00,CLR,,0.01,WeatherDisplay:10.37,2013-12-01 22:59:00,
2013-12-01 18:04:00,47.4,47.4,30.02,ESE,104,5.8,5.8,100,0.00,CLR,,0.01,WeatherDisplay:10.37,2013-12-01 23:04:00,
2013-12-01 18:09:00,47.4,47.4,30.02,ESE,117,4.6,4.6,100,0.00,CLR,,0.01,WeatherDisplay:10.37,2013-12-01 23:09:00,
2013-12-01 18:14:00,47.4,47.4,30.02,ENE,65,5.8,5.8,100,0.00,CLR,,0.01,WeatherDisplay:10.37,2013-12-01 23:14:00,
2013-12-01 18:19:00,47.4,47.4,30.02,ENE,66,4.6,4.6,100,0.00,CLR,,0.01,WeatherDisplay:10.37,2013-12-01 23:19:00,
2013-12-01 18:24:00,47.4,47.4,30.02,ESE,103,6.9,6.9,100,0.00,CLR,,0.01,WeatherDisplay:10.37,2013-12-01 23:24:00,
2013-12-01 18:29:00,47.4,47.4,30.02,East,97,5.8,5.8,100,0.00,CLR,,0.01,WeatherDisplay:10.37,2013-12-01 23:29:00,
2013-12-01 18:34:00,47.5,47.5,30.02,ESE,103,6.9,6.9,100,0.00,CLR,,0.01,WeatherDisplay:10.37,2013-12-01 23:34:00,
2013-12-01 18:39:00,47.4,47.4,30.02,SSE,155,8.1,8.1,100,0.00,CLR,,0.01,WeatherDisplay:10.37,2013-12-01 23:39:00,
2013-12-01 18:44:00,47.4,47.4,30.02,ENE,68,5.8,5.8,100,0.00,CLR,,0.01,WeatherDisplay:10.37,2013-12-01 23:44:00,
2013-12-01 18:49:00,47.4,47.4,30.02,East,88,5.8,5.8,100,0.00,CLR,,0.01,WeatherDisplay:10.37,2013-12-01 23:49:00,
2013-12-01 18:54:00,47.4,47.4,30.02,SE,141,6.9,6.9,100,0.00,CLR,,0.01,WeatherDisplay:10.37,2013-12-01 23:54:00,
2013-12-01 18:59:00,47.4,47.4,30.01,East,96,6.9,6.9,100,0.00,CLR,,0.01,WeatherDisplay:10.37,2013-12-01 23:59:00,
2013-12-01 19:04:00,47.5,47.5,30.01,East,80,6.9,6.9,100,0.00,CLR,,0.01,WeatherDisplay:10.37,2013-12-02 00:04:00,
2013-12-01 19:09:00,47.5,47.5,30.01,East,99,5.8,5.8,100,0.00,CLR,,0.01,WeatherDisplay:10.37,2013-12-02 00:09:00,
2013-12-01 19:14:00,47.4,47.4,30.01,East,90,8.1,8.1,100,0.00,CLR,,0.01,WeatherDisplay:10.37,2013-12-02 00:14:00,
2013-12-01 19:19:00,47.4,47.4,30.01,ESE,106,0.0,0.0,100,0.00,CLR,,0.01,WeatherDisplay:10.37,2013-12-02 00:19:00,
2013-12-01 19:24:00,47.4,47.4,30.01,ESE,109,4.6,4.6,100,0.00,CLR,,0.01,WeatherDisplay:10.37,2013-12-02 00:24:00,
2013-12-01 19:29:00,47.3,47.3,30.01,NE,40,2.3,2.3,100,0.00,CLR,,0.01,WeatherDisplay:10.37,2013-12-02 00:29:00,
2013-12-01 19:34:00,47.4,47.4,30.00,ENE,73,4.6,4.6,100,0.00,CLR,,0.01,WeatherDisplay:10.37,2013-12-02 00:34:00,
2013-12-01 19:39:00,47.3,47.3,30.00,East,88,6.9,6.9,100,0.00,CLR,,0.01,WeatherDisplay:10.37,2013-12-02 00:39:00,
2013-12-01 19:44:00,47.4,47.4,30.00,ENE,69,0.0,0.0,100,0.00,CLR,,0.01,WeatherDisplay:10.37,2013-12-02 00:44:00,
2013-12-01 19:49:00,47.3,47.3,30.00,ENE,69,0.0,0.0,100,0.00,CLR,,0.01,WeatherDisplay:10.37,2013-12-02 00:49:00,
2013-12-01 19:54:00,47.2,47.2,30.00,East,95,1.7,0.0,100,0.00,CLR,,0.01,WeatherDisplay:10.37,2013-12-02 00:54:00,
2013-12-01 19:59:00,47.2,47.2,30.00,NE,47,0.0,0.0,100,0.00,CLR,,0.01,WeatherDisplay:10.37,2013-12-02 00:59:00,
2013-12-01 20:04:00,46.9,46.9,30.00,ESE,113,5.8,5.8,100,0.00,CLR,,0.01,WeatherDisplay:10.37,2013-12-02 01:04:00,
2013-12-01 20:09:00,46.9,46.9,30.00,NE,51,5.8,5.8,100,0.00,CLR,,0.01,WeatherDisplay:10.37,2013-12-02 01:09:00,
2013-12-01 20:14:00,46.9,46.9,30.00,East,96,2.3,2.3,100,0.00,CLR,,0.01,WeatherDisplay:10.37,2013-12-02 01:14:00,
2013-12-01 20:19:00,46.9,46.9,29.99,ENE,64,0.0,0.0,100,0.00,CLR,,0.01,WeatherDisplay:10.37,2013-12-02 01:19:00,
2013-12-01 20:24:00,47.1,47.1,29.99,North,359,1.2,1.2,100,0.00,CLR,,0.01,WeatherDisplay:10.37,2013-12-02 01:24:00,
2013-12-01 20:29:00,47.0,47.0,29.99,North,359,0.0,0.0,100,0.00,CLR,,0.01,WeatherDisplay:10.37,2013-12-02 01:29:00,
2013-12-01 20:34:00,47.1,47.1,29.99,ENE,61,0.0,0.0,100,0.00,CLR,,0.01,WeatherDisplay:10.37,2013-12-02 01:34:00,
2013-12-01 20:39:00,47.0,47.0,29.99,East,86,1.7,1.7,100,0.00,CLR,,0.01,WeatherDisplay:10.37,2013-12-02 01:39:00,
2013-12-01 20:44:00,47.1,47.1,29.99,SW,224,3.5,3.5,100,0.00,CLR,,0.01,WeatherDisplay:10.37,2013-12-02 01:44:00,
2013-12-01 20:49:00,47.0,47.0,29.99,SW,236,4.7,4.7,100,0.00,CLR,,0.01,WeatherDisplay:10.37,2013-12-02 01:49:00,
2013-12-01 20:54:00,47.1,47.1,29.99,NE,55,0.0,0.0,100,0.00,CLR,,0.01,WeatherDisplay:10.37,2013-12-02 01:54:00,
2013-12-01 20:59:00,47.3,47.3,29.99,NE,55,0.0,0.0,100,0.00,CLR,,0.01,WeatherDisplay:10.37,2013-12-02 01:59:00,
2013-12-01 21:04:00,47.4,47.4,29.99,NE,55,0.0,0.0,100,0.00,CLR,,0.01,WeatherDisplay:10.37,2013-12-02 02:04:00,
2013-12-01 21:09:00,47.3,47.3,29.99,NE,55,0.0,0.0,100,0.00,CLR,,0.01,WeatherDisplay:10.37,2013-12-02 02:09:00,
2013-12-01 21:14:00,47.3,47.3,29.99,NE,55,0.0,0.0,100,0.00,CLR,,0.01,WeatherDisplay:10.37,2013-12-02 02:14:00,
2013-12-01 21:19:00,47.3,47.3,29.99,NE,55,0.0,0.0,100,0.00,CLR,,0.01,WeatherDisplay:10.37,2013-12-02 02:19:00,
2013-12-01 21:24:00,47.0,47.0,29.99,NE,55,0.0,0.0,100,0.00,CLR,,0.01,WeatherDisplay:10.37,2013-12-02 02:24:00,
2013-12-01 21:29:00,46.7,46.7,29.99,NE,55,0.0,0.0,100,0.00,CLR,,0.01,WeatherDisplay:10.37,2013-12-02 02:29:00,
2013-12-01 21:34:00,46.5,46.5,29.99,WSW,244,1.2,0.0,100,0.00,CLR,,0.01,WeatherDisplay:10.37,2013-12-02 02:34:00,
2013-12-01 21:39:00,46.6,46.6,29.99,West,278,4.6,4.6,100,0.00,CLR,,0.01,WeatherDisplay:10.37,2013-12-02 02:39:00,
2013-12-01 21:44:00,46.8,46.8,29.99,SSW,209,4.6,4.6,100,0.00,CLR,,0.01,WeatherDisplay:10.37,2013-12-02 02:44:00,
2013-12-01 21:49:00,46.4,46.4,29.98,West,272,5.8,5.8,100,0.00,CLR,,0.01,WeatherDisplay:10.37,2013-12-02 02:49:00,
2013-12-01 21:54:00,46.0,46.0,29.99,West,270,3.5,0.0,100,0.00,,,0.01,WeatherDisplay:10.37,2013-12-02 02:54:00,
2013-12-01 21:59:00,45.7,45.7,29.98,NNE,20,5.8,5.8,100,0.00,,,0.01,WeatherDisplay:10.37,2013-12-02 02:59:00,
2013-12-01 22:04:00,45.4,45.4,29.98,WNW,285,4.6,0.0,100,0.00,,,0.01,WeatherDisplay:10.37,2013-12-02 03:04:00,
2013-12-01 22:09:00,45.1,45.1,29.98,WNW,287,3.5,3.5,100,0.00,,,0.01,WeatherDisplay:10.37,2013-12-02 03:09:00,
2013-12-01 22:14:00,45.0,45.0,29.98,WNW,287,0.0,0.0,100,0.00,,,0.01,WeatherDisplay:10.37,2013-12-02 03:14:00,
2013-12-01 22:19:00,44.8,44.8,29.97,WNW,287,0.0,0.0,100,0.00,,,0.01,WeatherDisplay:10.37,2013-12-02 03:19:00,
2013-12-01 22:24:00,44.5,44.5,29.97,WNW,287,0.0,0.0,100,0.00,,,0.01,WeatherDisplay:10.37,2013-12-02 03:24:00,
2013-12-01 22:29:00,44.1,44.1,29.97,WNW,287,0.0,0.0,100,0.00,,,0.01,WeatherDisplay:10.37,2013-12-02 03:29:00,
2013-12-01 22:35:00,44.0,44.0,29.97,WNW,287,0.0,0.0,100,0.00,,,0.01,WeatherDisplay:10.37,2013-12-02 03:35:00,
2013-12-01 22:40:00,43.6,43.6,29.97,WNW,287,0.0,0.0,100,0.00,,,0.01,WeatherDisplay:10.37,2013-12-02 03:40:00,
2013-12-01 22:45:00,43.4,43.4,29.97,NNE,13,0.0,0.0,100,0.00,,,0.01,WeatherDisplay:10.37,2013-12-02 03:45:00,
2013-12-01 22:50:00,43.3,43.3,29.97,West,275,1.2,0.0,100,0.00,,,0.01,WeatherDisplay:10.37,2013-12-02 03:50:00,
2013-12-01 22:55:00,42.9,42.9,29.97,WNW,298,0.0,0.0,100,0.00,,,0.01,WeatherDisplay:10.37,2013-12-02 03:55:00,
2013-12-01 23:00:00,42.5,42.5,29.97,West,278,2.0,6.0,100,0.00,,,0.01,WeatherDisplay:10.37,2013-12-02 04:00:00,
2013-12-01 23:05:00,42.3,42.3,29.97,NNW,330,4.6,4.6,100,0.00,,,0.01,WeatherDisplay:10.37,2013-12-02 04:05:00,
2013-12-01 23:10:00,41.9,41.9,29.97,WSW,254,8.1,8.1,100,0.00,,,0.01,WeatherDisplay:10.37,2013-12-02 04:10:00,
2013-12-01 23:15:00,41.6,41.6,29.97,West,264,0.0,8.0,100,0.00,,,0.01,WeatherDisplay:10.37,2013-12-02 04:15:00,
2013-12-01 23:20:00,41.4,41.4,29.97,WSW,241,3.5,3.5,100,0.00,,,0.01,WeatherDisplay:10.37,2013-12-02 04:20:00,
2013-12-01 23:25:00,41.2,41.2,29.97,West,273,3.0,6.0,100,0.00,,,0.01,WeatherDisplay:10.37,2013-12-02 04:25:00,
2013-12-01 23:30:00,41.0,41.0,29.97,West,261,2.2,4.0,100,0.00,,,0.01,WeatherDisplay:10.37,2013-12-02 04:30:00,
2013-12-01 23:35:00,40.7,40.7,29.97,WSW,249,2.0,10.0,100,0.00,,,0.01,WeatherDisplay:10.37,2013-12-02 04:35:00,
2013-12-01 23:40:00,40.6,40.6,29.97,WSW,247,8.1,8.1,100,0.00,,,0.01,WeatherDisplay:10.37,2013-12-02 04:40:00,
2013-12-01 23:45:00,40.5,40.5,29.97,WSW,251,2.0,6.0,100,0.00,,,0.01,WeatherDisplay:10.37,2013-12-02 04:45:00,
2013-12-01 23:50:00,40.4,40.4,29.97,WNW,282,8.9,8.9,100,0.00,,,0.01,WeatherDisplay:10.37,2013-12-02 04:50:00,
2013-12-01 23:55:00,40.2,40.2,29.97,West,280,2.0,12.0,100,0.00,,,0.01,WeatherDisplay:10.37,2013-12-02 04:55:00,